This demonstration page uses our WeatherBlox Daily Observations layout. Learn more.

Left ArrowRight Arrow

44.8408, -93.29828

Hourly Observations for September 28, 2017

Temp ( °F °C ) Dew Point ( °F °C ) Humidity (%) Winds ( mph kmh ) Pressure ( in mb ) Visibility ( mi km ) Precip ( " mm )
12:53 am 00:53 Clear 54 12.2 47 8.3 77 77 SSW 5 7 30.17 1022 10 16 0.00 0.00
1:53 am 01:53 Clear 53 11.7 47 8.3 80 80 S 3 6 30.17 1022 10 16 0.00 0.00
2:53 am 02:53 Mostly Clear 53 11.7 47 8.3 80 80 Calm 30.17 1022 10 16 0.00 0.00
3:53 am 03:53 Cloudy 53 11.7 48 8.9 83 83 SSW 3 6 30.17 1022 10 16 0.00 0.00
4:53 am 04:53 Cloudy 55 12.8 48 8.9 77 77 SW 10 17 30.16 1021 10 16 0.00 0.00
5:53 am 05:53 Partly Cloudy 54 12.2 47 8.3 77 77 SW 10 17 30.16 1021 10 16 0.00 0.00
6:53 am 06:53 Partly Cloudy 54 12.2 48 8.9 80 80 WSW 9 15 30.16 1021 10 16 0.00 0.00
7:53 am 07:53 Partly Cloudy 55 12.8 48 8.9 77 77 SW 9 15 30.15 1021 10 16 0.00 0.00
8:53 am 08:53 Mostly Cloudy 57 13.9 49 9.4 74 74 WSW 8 13 30.16 1021 10 16 0.00 0.00
9:53 am 09:53 Mostly Cloudy 59 15 49 9.4 69 69 WSW 7 11 30.16 1021 10 16 0.00 0.00
10:53 am 10:53 Partly Cloudy 63 17.2 51 10.6 65 65 WSW 6 9 30.16 1021 10 16 0.00 0.00
11:53 am 11:53 Mostly Cloudy 65 18.3 51 10.6 61 61 WSW 8 13 30.15 1021 10 16 0.00 0.00
12:53 pm 12:53 Partly Cloudy 69 20.6 52 11.1 55 55 W 8 13 30.13 1020 10 16 0.00 0.00
1:53 pm 13:53 Partly Cloudy 72 22.2 53 11.7 52 52 W 9 15 30.11 1020 10 16 0.00 0.00
2:53 pm 14:53 Partly Cloudy 73 22.8 51 10.6 46 46 WNW 12 19 30.09 1019 10 16 0.00 0.00
3:53 pm 15:53 Mostly Cloudy 73 22.8 50 10 44 44 WNW 9 15 30.08 1019 10 16 0.00 0.00
4:53 pm 16:53 Mostly Cloudy 71 21.7 47 8.3 42 42 WNW 10 17 30.08 1019 10 16 0.00 0.00
5:53 pm 17:53 Mostly Cloudy 70 21.1 44 6.7 39 39 NNW 7 11 30.08 1019 10 16 0.00 0.03
6:53 pm 18:53 Mostly Cloudy 68 20 46 7.8 45 45 WNW 7 11 30.09 1019 10 16 0.00 0.00
7:53 pm 19:53 Mostly Cloudy 66 18.9 48 8.9 52 52 NW 7 11 30.10 1019 10 16 0.00 0.00
8:53 pm 20:53 Mostly Cloudy 64 17.8 46 7.8 52 52 NNW 10 17 30.12 1020 10 16 0.00 0.00
9:53 pm 21:53 Mostly Clear 63 17.2 49 9.4 60 60 N 14 22 30.14 1021 10 16 0.00 0.00
10:53 pm 22:53 Mostly Clear 60 15.6 50 10 70 70 N 10 17 30.16 1022 10 16 0.00 0.00
11:53 pm 23:53 Clear 57 13.9 50 10 78 78 N 7 11 30.18 1022 10 16 0.00 0.00

Powered by AerisWeather